When you browse on this site, cookies collect data to enhance your experience and personalize the content and advertising you see.
Visit our Privacy Policy to learn more. By continuing to use the site, you agree to this use of cookies and data.
  • în România
  • Lista ţărilor
  • Pe 7 zile
  • Temperatura apei
  • Hartă satelitară
  • Meteo pe hartă
  • Widget-uri
  • user-avatar
    Intrare

    Meteo pe oră la Kurdyum

    Astăzi, 21 Martie, Joi

    Timp Temperatura Precipitaţii Vânt Presiune Umiditate
    00:00 -2°C° 0 mm 2 m/s 757 mmHg 97%
    01:00 -2°C° 0 mm 2 m/s 757 mmHg 97%
    02:00 -1°C° 0 mm 2 m/s 757 mmHg 97%
    03:00 -1°C° 0 mm 2 m/s 756 mmHg 97%
    04:00 -1°C° 0 mm 2 m/s 756 mmHg 97%
    05:00 +1°C° 0 mm 2 m/s 756 mmHg 98%
    06:00 +1°C° 0 mm 2 m/s 756 mmHg 98%
    07:00 +1°C° 0 mm 2 m/s 755 mmHg 98%
    08:00 +1°C° 0 mm 2 m/s 755 mmHg 99%
    09:00 +1°C° 0 mm 2 m/s 755 mmHg 99%
    10:00 +2°C° 0.1 mm 2 m/s 755 mmHg 99%
    11:00 +2°C° 0.1 mm 2 m/s 755 mmHg 99%
    12:00 +2°C° 0.1 mm 2 m/s 755 mmHg 100%
    13:00 +2°C° 0.1 mm 2 m/s 755 mmHg 100%
    14:00 +2°C° 0.1 mm 2 m/s 754 mmHg 100%
    15:00 +3°C° 0 mm 1 m/s 754 mmHg 99%
    16:00 +2°C° 0 mm 2 m/s 754 mmHg 99%
    17:00 +1°C° 0 mm 2 m/s 754 mmHg 99%
    18:00 +1°C° 0 mm 2 m/s 754 mmHg 98%
    19:00 +1°C° 0 mm 2 m/s 754 mmHg 98%
    20:00 +1°C° 0 mm 2 m/s 754 mmHg 97%
    21:00 +1°C° 0 mm 2 m/s 754 mmHg 97%
    22:00 +1°C° 0 mm 2 m/s 754 mmHg 96%
    23:00 -1°C° 0 mm 3 m/s 754 mmHg 95%

    Mâine, 22 Martie, Vineri

    Timp Temperatura Precipitaţii Vânt Presiune Umiditate
    00:00 -1°C° 0 mm 3 m/s 754 mmHg 95%
    01:00 -2°C° 0 mm 3 m/s 753 mmHg 94%
    02:00 -2°C° 0 mm 3 m/s 753 mmHg 94%
    03:00 -4°C° 0 mm 3 m/s 753 mmHg 94%
    04:00 -4°C° 0 mm 3 m/s 753 mmHg 93%
    05:00 -5°C° 0 mm 3 m/s 753 mmHg 93%
    06:00 -5°C° 0 mm 3 m/s 753 mmHg 93%
    07:00 -3°C° 0 mm 2 m/s 753 mmHg 92%
    08:00 -2°C° 0 mm 2 m/s 753 mmHg 91%
    09:00 -1°C° 0 mm 2 m/s 753 mmHg 91%
    10:00 -1°C° 0 mm 2 m/s 752 mmHg 93%
    11:00 -1°C° 0 mm 2 m/s 752 mmHg 95%
    12:00 -1°C° 0 mm 2 m/s 752 mmHg 97%
    13:00 -1°C° 0 mm 2 m/s 751 mmHg 97%
    14:00 +1°C° 0 mm 2 m/s 751 mmHg 97%
    15:00 +1°C° 0 mm 2 m/s 751 mmHg 97%
    16:00 +1°C° 0 mm 1 m/s 750 mmHg 95%
    17:00 +1°C° 0 mm 1 m/s 750 mmHg 93%
    18:00 +1°C° 0 mm 1 m/s 750 mmHg 90%
    19:00 +1°C° 0 mm 1 m/s 750 mmHg 91%
    20:00 -2°C° 0 mm 2 m/s 749 mmHg 91%
    21:00 -2°C° 0 mm 2 m/s 749 mmHg 91%
    22:00 -3°C° 0 mm 2 m/s 749 mmHg 90%
    23:00 -3°C° 0 mm 2 m/s 748 mmHg 90%

    Poimâine, 23 Martie, Sâmbătă

    Timp Temperatura Precipitaţii Vânt Presiune Umiditate
    00:00 -4°C° 0 mm 2 m/s 748 mmHg 89%
    01:00 -4°C° 0 mm 2 m/s 748 mmHg 90%
    02:00 -3°C° 0 mm 2 m/s 748 mmHg 91%
    03:00 -3°C° 0 mm 2 m/s 748 mmHg 92%
    04:00 -3°C° 0 mm 2 m/s 748 mmHg 92%
    05:00 -5°C° 0 mm 3 m/s 748 mmHg 93%
    06:00 -5°C° 0 mm 3 m/s 748 mmHg 93%
    07:00 -4°C° 0 mm 3 m/s 748 mmHg 93%
    08:00 -4°C° 0 mm 3 m/s 749 mmHg 92%
    09:00 -3°C° 0 mm 4 m/s 749 mmHg 92%
    10:00 -3°C° 0.1 mm 4 m/s 749 mmHg 93%
    11:00 -2°C° 0.1 mm 4 m/s 750 mmHg 95%
    12:00 -2°C° 0.1 mm 4 m/s 750 mmHg 96%
    13:00 -2°C° 0.3 mm 4 m/s 750 mmHg 96%
    14:00 -2°C° 0.3 mm 4 m/s 750 mmHg 95%
    15:00 -1°C° 0.3 mm 4 m/s 750 mmHg 95%
    16:00 -2°C° 0.5 mm 4 m/s 750 mmHg 95%
    17:00 -2°C° 0.5 mm 4 m/s 750 mmHg 94%
    18:00 -2°C° 0.5 mm 4 m/s 751 mmHg 94%
    19:00 -2°C° 0.6 mm 4 m/s 751 mmHg 95%
    20:00 -2°C° 0.6 mm 4 m/s 752 mmHg 96%
    21:00 -2°C° 0.6 mm 4 m/s 752 mmHg 96%
    22:00 -2°C° 0.4 mm 4 m/s 752 mmHg 97%
    23:00 -1°C° 0.4 mm 3 m/s 752 mmHg 97%

    24 Martie, Duminică

    Timp Temperatura Precipitaţii Vânt Presiune Umiditate
    00:00 -1°C° 0.4 mm 3 m/s 752 mmHg 97%
    01:00 -1°C° 0 mm 3 m/s 752 mmHg 97%
    02:00 -1°C° 0 mm 2 m/s 752 mmHg 97%
    03:00 -1°C° 0 mm 2 m/s 752 mmHg 98%
    04:00 +1°C° 0 mm 1 m/s 752 mmHg 98%
    05:00 +1°C° 0 mm 1 m/s 753 mmHg 98%
    06:00 -1°C° 0 mm 0 m/s 753 mmHg 98%
    07:00 0°C° 0 mm 0 m/s 753 mmHg 98%
    08:00 0°C° 0 mm 0 m/s 753 mmHg 99%
    09:00 +1°C° 0 mm 0 m/s 753 mmHg 99%
    10:00 +2°C° 0 mm 1 m/s 753 mmHg 99%
    11:00 +2°C° 0 mm 1 m/s 753 mmHg 99%
    12:00 +1°C° 0 mm 2 m/s 753 mmHg 99%
    13:00 +1°C° 0 mm 2 m/s 752 mmHg 99%
    14:00 +1°C° 0 mm 2 m/s 752 mmHg 99%
    15:00 +1°C° 0 mm 2 m/s 752 mmHg 99%
    16:00 -1°C° 0 mm 2 m/s 752 mmHg 97%
    17:00 -1°C° 0 mm 2 m/s 752 mmHg 95%
    18:00 -1°C° 0 mm 2 m/s 752 mmHg 94%
    19:00 -2°C° 0 mm 2 m/s 751 mmHg 94%
    20:00 -2°C° 0 mm 2 m/s 751 mmHg 94%
    21:00 -2°C° 0 mm 2 m/s 751 mmHg 94%
    22:00 -2°C° 0 mm 2 m/s 750 mmHg 94%
    23:00 -2°C° 0 mm 3 m/s 750 mmHg 94%

    25 Martie, Luni

    Timp Temperatura Precipitaţii Vânt Presiune Umiditate
    00:00 -4°C° 0 mm 3 m/s 750 mmHg 94%
    01:00 -4°C° 0 mm 3 m/s 749 mmHg 95%
    02:00 -3°C° 0 mm 2 m/s 749 mmHg 95%
    03:00 -3°C° 0 mm 2 m/s 748 mmHg 95%
    04:00 -3°C° 0 mm 2 m/s 748 mmHg 95%
    05:00 -4°C° 0 mm 3 m/s 747 mmHg 95%
    06:00 -4°C° 0 mm 3 m/s 747 mmHg 94%
    07:00 -2°C° 0 mm 3 m/s 747 mmHg 94%
    08:00 -2°C° 0 mm 3 m/s 747 mmHg 93%
    09:00 -1°C° 0 mm 3 m/s 746 mmHg 93%
    10:00 -1°C° 0 mm 3 m/s 746 mmHg 94%
    11:00 -1°C° 0 mm 4 m/s 746 mmHg 96%
    12:00 -1°C° 0 mm 4 m/s 746 mmHg 97%
    13:00 -1°C° 0 mm 4 m/s 746 mmHg 96%
    14:00 -1°C° 0 mm 4 m/s 746 mmHg 96%
    15:00 -1°C° 0 mm 4 m/s 746 mmHg 95%
    16:00 -1°C° 0 mm 4 m/s 746 mmHg 94%
    17:00 -1°C° 0 mm 4 m/s 746 mmHg 92%
    18:00 -1°C° 0 mm 3 m/s 747 mmHg 91%
    19:00 -1°C° 0 mm 3 m/s 747 mmHg 90%
    20:00 -2°C° 0 mm 3 m/s 748 mmHg 89%
    21:00 -2°C° 0 mm 3 m/s 748 mmHg 87%
    22:00 -4°C° 0 mm 4 m/s 748 mmHg 88%
    23:00 -4°C° 0 mm 4 m/s 749 mmHg 89%

    26 Martie, Marţi

    Timp Temperatura Precipitaţii Vânt Presiune Umiditate
    00:00 -5°C° 0 mm 4 m/s 749 mmHg 89%
    01:00 -5°C° 0 mm 4 m/s 749 mmHg 89%
    02:00 -5°C° 0 mm 4 m/s 749 mmHg 89%
    03:00 -7°C° 0 mm 4 m/s 750 mmHg 89%
    04:00 -6°C° 0 mm 3 m/s 750 mmHg 89%
    05:00 -6°C° 0 mm 3 m/s 751 mmHg 89%
    06:00 -7°C° 0 mm 3 m/s 751 mmHg 89%
    07:00 -6°C° 0 mm 3 m/s 752 mmHg 88%
    08:00 -5°C° 0 mm 3 m/s 752 mmHg 88%
    09:00 -4°C° 0 mm 3 m/s 753 mmHg 87%
    10:00 -2°C° 0 mm 3 m/s 753 mmHg 87%
    11:00 -1°C° 0 mm 3 m/s 753 mmHg 87%
    12:00 -1°C° 0 mm 3 m/s 754 mmHg 87%
    13:00 0°C° 0 mm 3 m/s 754 mmHg 86%
    14:00 0°C° 0 mm 3 m/s 754 mmHg 85%
    15:00 0°C° 0 mm 3 m/s 754 mmHg 85%
    16:00 -1°C° 0 mm 3 m/s 754 mmHg 86%
    17:00 -2°C° 0 mm 2 m/s 754 mmHg 88%
    18:00 -3°C° 0 mm 2 m/s 754 mmHg 90%
    19:00 -3°C° 0 mm 2 m/s 754 mmHg 89%
    20:00 -4°C° 0 mm 2 m/s 754 mmHg 87%
    21:00 -4°C° 0 mm 2 m/s 754 mmHg 86%
    22:00 -4°C° 0 mm 2 m/s 754 mmHg 84%
    23:00 -4°C° 0 mm 2 m/s 754 mmHg 82%
    Arată mai mult